[[{"header":{"parameterUnit":"m.s-1","parameterCategory":1,"la1":30.2991,"la2":30.254,"lo1":-89.0895,"lo2":-89.0444,"dy":0.0017,"dx":0.0017,"nx":28,"ny":28,"refTime":"2025-12-16T09:00:00:Z","depth":0,"parameterNumber":2,"parameterNumberName":"U-component_of_WINDS"},"data":[0,0,0,0,0,0,0,0,0,0,0,0,0,0,0,0,0,0,0,0,0,0,0,0,0,0,0,0,0,0,0,0,0,0,0,0,0,0,0,0,0,0,0,0,0,0,0,0,0,0,0,0,0,0,0,0,0,0,-3.1234,-3.1235,0,-3.1323,-3.1324,-3.1325,-3.1233,-3.1229,-3.1226,-3.1222,-3.1318,-3.1324,-3.133,0,0,0,0,0,0,0,0,0,0,0,0,0,-3.0988,-3.0993,-3.1233,-3.1235,-3.1236,-3.1323,-3.1324,-3.1325,-3.1234,-3.1229,-3.1225,-3.1221,-3.1316,-3.1323,-3.133,0,0,0,0,0,0,0,0,0,0,0,0,0,-3.1088,-3.0994,-3.1233,-3.12,-3.1198,-3.1322,-3.1324,-3.1325,-3.1235,-3.1229,-3.1224,-3.1219,-3.1314,-3.1322,-3.1331,-3.1493,0,0,-3.1358,-3.1362,0,0,0,0,0,0,0,0,-3.1082,-3.1097,-3.1204,-3.1203,-3.1201,-3.1261,-3.1272,-3.1382,-3.1236,-3.1221,-3.1222,-3.1216,-3.1304,-3.1313,-3.1342,-3.1497,-3.1502,-3.1359,-3.1364,-3.1368,-3.137,0,0,0,0,0,0,0,-3.1075,-3.1093,-3.1269,-3.1206,-3.1204,-3.1183,-3.1191,-3.1292,-3.1292,-3.1222,-3.1215,-3.1227,-3.1302,-3.1333,-3.1343,-3.1503,-3.1359,-3.1366,-3.1372,-3.1375,-3.1798,-3.1803,0,0,0,0,0,0,-3.1072,-3.1087,-3.1266,-3.1272,-3.1127,-3.1191,-3.1201,-3.1247,-3.129,-3.1291,-3.1231,-3.1222,-3.1321,-3.1333,-3.1346,-3.154,-3.1368,-3.1376,-3.1381,-3.1792,-3.1799,-3.1805,0,0,0,0,0,0,-3.1067,-3.1088,-3.1262,-3.1178,-3.1198,-3.1201,-3.1255,-3.1252,-3.1283,-3.1297,-3.1297,-3.1264,-3.1317,-3.1334,-3.1457,-3.1542,-3.138,-3.1388,-3.1785,-3.1794,-3.1802,-3.1929,0,0,0,0,0,0,-3.106,-3.1087,-3.1148,-3.118,-3.1203,-3.1371,-3.126,-3.1258,-3.1298,-3.1287,-3.1328,-3.1329,-3.1314,-3.1445,-3.1466,-3.1551,-3.1395,-3.1777,-3.1789,-3.1799,-3.1917,-3.1941,-3.1961,0,0,0,0,0,-3.1051,-3.1181,-3.1151,-3.1174,-3.1279,-3.1376,-3.139,-3.1369,-3.1305,-3.1367,-3.1376,-3.1328,-3.1529,-3.1458,-3.1481,-3.1571,-3.1772,-3.1786,-3.1799,-3.1907,-3.1936,-3.1961,0,0,0,0,0,0,-3.116,-3.1184,-3.1152,-3.1295,-3.1334,-3.1361,-3.1438,-3.14,-3.1459,-3.1447,-3.1419,-3.1429,-3.156,-3.1577,-3.1498,-3.173,-3.164,-3.1659,-3.1715,-3.1743,-3.1764,-3.1759,-3.1402,0,0,0,0,0,-3.12,-3.1276,-3.1293,-3.1418,-3.1439,-3.1435,-3.1477,-3.1457,-3.1497,-3.1514,-3.1532,-3.1574,-3.1646,-3.1695,-3.1762,-3.1918,-3.1927,-3.1991,-3.2013,-3.2031,-3.2049,-3.2134,-3.2164,-3.1849,-3.1849,-3.1849,0,0,-3.1285,-3.1307,-3.1357,-3.144,-3.1468,-3.1549,-3.145,-3.1539,-3.1599,-3.1528,-3.1646,-3.166,-3.1705,-3.1846,-3.1909,-3.1865,-3.2137,-3.2048,-3.2063,-3.207,-3.2151,-3.2181,-3.2208,-3.1858,-3.1857,-3.1855,0,0,-3.1481,-3.1504,-3.1612,-3.1641,-3.1685,-3.1681,-3.1707,-3.1739,-3.1746,-3.1863,-3.1812,-3.1883,-3.2008,-3.2043,-3.2077,-3.2286,-3.2245,-3.2309,-3.2425,-3.2509,-3.2534,-3.2556,-3.2633,-3.266,-3.2325,-3.2326,-3.2326,0,-3.1581,-3.1699,-3.1672,-3.1765,-3.1804,-3.1741,-3.185,-3.1881,-3.1945,-3.1974,-3.1922,-3.2079,-3.2104,-3.2253,-3.2304,-3.2333,-3.2363,-3.2305,-3.2532,-3.2554,-3.2574,-3.2647,-3.2676,-3.2333,-3.2332,-3.2332,-3.2331,0,-3.1822,-3.1905,-3.1986,-3.2048,-3.2096,-3.2197,-3.2186,-3.2238,-3.2214,-3.2216,-3.2338,-3.2366,-3.2439,-3.2472,-3.245,-3.2619,-3.259,-3.2536,-3.2445,-3.2612,-3.2681,-3.2708,-3.2344,-3.2342,-3.2339,-3.2337,0,0,-3.209,-3.2135,-3.2166,-3.2194,-3.2237,-3.2301,-3.2399,-3.2469,-3.2515,-3.2561,-3.2645,-3.2752,-3.2702,-3.2741,-3.2722,-3.2795,-3.2962,-3.2732,-3.2733,-3.2776,-3.3152,-3.3194,-3.3227,-3.2933,-3.2938,-3.2942,-3.3149,0,-3.2289,-3.2459,-3.2437,-3.26,-3.2678,-3.2619,-3.2705,-3.2741,-3.2746,-3.2814,-3.2819,-3.2897,-3.2824,-3.2847,-3.2917,-3.2927,-3.3037,-3.2911,-3.3013,-3.3017,-3.3006,-3.3262,-3.3307,-3.3501,-3.3175,-3.318,-3.3183,0,-3.2544,-3.2598,-3.2769,-3.2801,-3.2833,-3.291,-3.2973,-3.3037,-3.3078,-3.3076,-3.312,-3.3088,-3.3188,-3.3094,-3.3233,-3.3148,-3.3188,-3.3199,-3.3206,-3.3217,-3.3112,-3.3283,-3.3562,-3.3592,-3.3224,-3.3221,-3.3218,0,-3.2726,-3.2841,-3.2959,-3.2984,-3.3024,-3.308,-3.3099,-3.3134,-3.3178,-3.3233,-3.3262,-3.3328,-3.3365,-3.3418,-3.3406,-3.3338,-3.3549,-3.3453,-3.3553,-3.3554,-3.3602,-3.36,-3.3895,-3.3624,-3.3624,-3.3623,-3.3622,0,-3.2952,-3.3059,-3.3041,-3.3114,-3.3234,-3.3207,-3.3327,-3.3338,-3.337,-3.3446,-3.3398,-3.347,-3.3448,-3.3519,-3.351,-3.3628,-3.3645,-3.3648,-3.3645,-3.3654,-3.3654,-3.3682,-3.3669,-3.3631,-3.3629,-3.3627,-3.3626,0,-3.3176,-3.3168,-3.3293,-3.3319,-3.3328,-3.3416,-3.3439,-3.3508,-3.3508,-3.3604,-3.3626,-3.3627,-3.3709,-3.3701,-3.3792,-3.3786,-3.3933,-3.3913,-3.392,-3.3916,-3.4018,-3.4009,-3.4343,-3.4386,-3.4085,-3.4088,-3.409,0,-3.3322,-3.3403,-3.3438,-3.3485,-3.3507,-3.3583,-3.3627,-3.3604,-3.3652,-3.3705,-3.3769,-3.3845,-3.3906,-3.4039,-3.405,-3.412,-3.4103,-3.4214,-3.4113,-3.412,-3.4107,-3.4104,-3.4113,-3.4236,-3.4239,-3.4242,-3.4244,0,-3.3583,-3.3574,-3.3639,-3.3703,-3.3757,-3.3807,-3.3852,-3.3893,-3.3874,-3.3931,-3.4013,-3.406,-3.4154,-3.4232,-3.4298,-3.4319,-3.4281,-3.4275,-3.4303,-3.4314,-3.4316,-3.4319,-3.3977,-3.4269,-3.4266,-3.4264,-3.4263,-3.4262,-3.3774,-3.3844,-3.388,-3.3954,-3.3985,-3.4028,-3.4095,-3.4103,-3.4171,-3.4244,-3.4227,-3.432,-3.436,-3.4445,-3.4472,-3.4546,-3.4506,-3.4545,-3.4555,-3.4566,-3.4579,-3.4302,-3.4558,-3.4557,-3.4557,-3.4556,-3.4556,0,-3.4034,-3.4054,-3.4122,-3.4186,-3.4245,-3.42,-3.4248,-3.4301,-3.4383,-3.4422,-3.4482,-3.4578,-3.4653,-3.4669,-3.4741,-3.4798,-3.4782,-3.4818,-3.4815,-3.4821,-3.461,-3.458,-3.483,-3.483,-3.4829,-3.4829,-3.4829,-3.4829,-3.4177,-3.4294,-3.429,-3.4422,-3.4441,-3.4532,-3.4563,-3.4603,-3.4634,-3.4743,-3.4805,-3.4814,-3.4844,-3.4918,-3.4986,-3.4989,-3.5019,-3.5063,-3.5059,-3.4863,-3.4835,-3.4809,-3.4781,-3.5069,-3.507,-3.5264,-3.5266,-3.5268]},{"header":{"parameterUnit":"m.s-1","parameterCategory":1,"la1":30.2991,"la2":30.254,"lo1":-89.0895,"lo2":-89.0444,"dy":0.0017,"dx":0.0017,"nx":28,"ny":28,"refTime":"2025-12-16T09:00:00:Z","depth":0,"parameterNumber":3,"parameterNumberName":"V-component_of_WINDS"},"data":[0,0,0,0,0,0,0,0,0,0,0,0,0,0,0,0,0,0,0,0,0,0,0,0,0,0,0,0,0,0,0,0,0,0,0,0,0,0,0,0,0,0,0,0,0,0,0,0,0,0,0,0,0,0,0,0,0,0,-2.3757,-2.3757,0,-2.3734,-2.3734,-2.3734,-2.3675,-2.3674,-2.3672,-2.3671,-2.3648,-2.3648,-2.3649,0,0,0,0,0,0,0,0,0,0,0,0,0,-2.3748,-2.3749,-2.3757,-2.3757,-2.3757,-2.3734,-2.3734,-2.3734,-2.3675,-2.3673,-2.3672,-2.3671,-2.3648,-2.3648,-2.3649,0,0,0,0,0,0,0,0,0,0,0,0,0,-2.3742,-2.3749,-2.3757,-2.3725,-2.3721,-2.3734,-2.3734,-2.3734,-2.3675,-2.3673,-2.3672,-2.367,-2.3647,-2.3648,-2.3649,-2.3692,0,0,-2.3651,-2.3652,0,0,0,0,0,0,0,0,-2.3742,-2.3742,-2.373,-2.3727,-2.3723,-2.3705,-2.3722,-2.3719,-2.3676,-2.3693,-2.3671,-2.3669,-2.3668,-2.3667,-2.3667,-2.3691,-2.3689,-2.3652,-2.3652,-2.3652,-2.3653,0,0,0,0,0,0,0,-2.3743,-2.3743,-2.3748,-2.373,-2.3726,-2.3711,-2.3708,-2.3721,-2.3691,-2.3691,-2.3687,-2.3685,-2.3666,-2.3667,-2.3666,-2.3689,-2.3651,-2.3652,-2.3653,-2.3653,-2.3743,-2.3745,0,0,0,0,0,0,-2.3748,-2.3743,-2.3749,-2.3747,-2.3728,-2.3712,-2.3709,-2.3713,-2.3691,-2.3686,-2.3687,-2.3682,-2.3666,-2.3665,-2.3665,-2.3712,-2.3652,-2.3653,-2.3654,-2.3742,-2.3744,-2.3746,0,0,0,0,0,0,-2.3748,-2.3749,-2.375,-2.3744,-2.3743,-2.3714,-2.372,-2.3714,-2.3714,-2.3688,-2.3682,-2.3692,-2.3665,-2.3664,-2.3685,-2.371,-2.3653,-2.3654,-2.3739,-2.3742,-2.3745,-2.3807,0,0,0,0,0,0,-2.3748,-2.3749,-2.3766,-2.3745,-2.3744,-2.377,-2.3721,-2.3715,-2.3715,-2.371,-2.3692,-2.3687,-2.3663,-2.3684,-2.3686,-2.371,-2.3655,-2.3737,-2.3741,-2.3744,-2.3802,-2.3811,-2.3819,0,0,0,0,0,-2.3748,-2.3785,-2.3767,-2.3768,-2.3764,-2.3772,-2.3771,-2.3743,-2.3718,-2.3733,-2.3716,-2.3687,-2.3707,-2.3687,-2.3688,-2.3713,-2.3735,-2.374,-2.3744,-2.3799,-2.381,-2.3819,0,0,0,0,0,0,-2.381,-2.3781,-2.3761,-2.3793,-2.3785,-2.3762,-2.3781,-2.3756,-2.3756,-2.375,-2.3715,-2.3712,-2.3737,-2.3727,-2.3705,-2.3752,-2.3716,-2.3721,-2.3758,-2.3768,-2.3776,-2.3778,-2.3656,0,0,0,0,0,-2.3827,-2.3837,-2.3811,-2.3841,-2.3838,-2.3811,-2.3813,-2.3792,-2.3783,-2.3779,-2.3764,-2.3756,-2.376,-2.3763,-2.3766,-2.3801,-2.3795,-2.3819,-2.3827,-2.3834,-2.3839,-2.3854,-2.3864,-2.376,-2.376,-2.376,0,0,-2.3863,-2.3849,-2.3857,-2.3853,-2.3845,-2.3854,-2.3808,-2.3821,-2.3828,-2.3781,-2.3799,-2.3788,-2.3776,-2.3804,-2.3815,-2.3796,-2.3866,-2.384,-2.3846,-2.3846,-2.3859,-2.3869,-2.3878,-2.3763,-2.3763,-2.3762,0,0,-2.3933,-2.3924,-2.3947,-2.3939,-2.3926,-2.3907,-2.3913,-2.3893,-2.3883,-2.3901,-2.3866,-2.3873,-2.3881,-2.3874,-2.3871,-2.3936,-2.3909,-2.3938,-2.3982,-2.3998,-2.4006,-2.4013,-2.4034,-2.4043,-2.3943,-2.3943,-2.3943,0,-2.3979,-2.3993,-2.3962,-2.3976,-2.3975,-2.3932,-2.3955,-2.3949,-2.3938,-2.3938,-2.3917,-2.3925,-2.3915,-2.3939,-2.3954,-2.3954,-2.3958,-2.394,-2.4007,-2.4014,-2.402,-2.404,-2.4048,-2.3946,-2.3946,-2.3946,-2.3945,0,-2.4049,-2.4059,-2.4079,-2.4068,-2.4069,-2.4088,-2.4059,-2.4063,-2.4042,-2.4025,-2.4042,-2.4028,-2.4026,-2.403,-2.401,-2.4051,-2.4039,-2.4013,-2.3977,-2.4034,-2.4052,-2.406,-2.3951,-2.395,-2.3949,-2.3948,0,0,-2.4158,-2.4129,-2.4137,-2.4131,-2.4113,-2.412,-2.4136,-2.4133,-2.4137,-2.4131,-2.4142,-2.4149,-2.4124,-2.4121,-2.41,-2.4113,-2.4163,-2.4085,-2.4084,-2.4099,-2.4205,-2.4224,-2.4234,-2.4145,-2.4147,-2.4148,-2.4206,0,-2.4223,-2.4248,-2.422,-2.4251,-2.4258,-2.4217,-2.4231,-2.4221,-2.4205,-2.4208,-2.4191,-2.4196,-2.4164,-2.4161,-2.4173,-2.4155,-2.4184,-2.415,-2.4154,-2.4155,-2.4158,-2.4244,-2.4264,-2.4319,-2.4213,-2.4214,-2.4215,0,-2.4302,-2.4298,-2.433,-2.4308,-2.431,-2.4323,-2.4317,-2.4321,-2.4309,-2.4296,-2.4292,-2.4265,-2.4277,-2.4242,-2.4258,-2.4236,-2.4236,-2.4227,-2.4228,-2.4227,-2.4188,-2.4243,-2.4337,-2.4345,-2.4226,-2.4225,-2.4225,0,-2.4377,-2.438,-2.4398,-2.4394,-2.437,-2.4379,-2.437,-2.4355,-2.4354,-2.4349,-2.4348,-2.4345,-2.4343,-2.4341,-2.4313,-2.429,-2.4332,-2.4295,-2.4321,-2.4322,-2.4331,-2.4331,-2.4425,-2.4333,-2.4333,-2.4333,-2.4333,0,-2.4451,-2.4472,-2.4431,-2.4442,-2.4463,-2.443,-2.4452,-2.4438,-2.4425,-2.4432,-2.4397,-2.4404,-2.4368,-2.4371,-2.4349,-2.4365,-2.4365,-2.4354,-2.4348,-2.4356,-2.4358,-2.4355,-2.435,-2.4335,-2.4335,-2.4334,-2.4334,0,-2.4538,-2.4512,-2.4529,-2.4504,-2.4498,-2.4514,-2.4492,-2.4501,-2.4482,-2.4492,-2.4492,-2.4462,-2.4464,-2.4436,-2.4433,-2.4418,-2.4443,-2.4431,-2.4447,-2.4443,-2.447,-2.4467,-2.4565,-2.4575,-2.4478,-2.4479,-2.448,0,-2.4587,-2.4602,-2.4578,-2.4579,-2.4571,-2.4575,-2.4574,-2.4541,-2.4542,-2.4527,-2.4537,-2.4536,-2.4533,-2.4538,-2.4515,-2.4512,-2.4498,-2.4533,-2.4498,-2.4505,-2.4497,-2.4496,-2.4497,-2.454,-2.4541,-2.4542,-2.4543,0,-2.4676,-2.4662,-2.4662,-2.4656,-2.4656,-2.465,-2.4642,-2.4646,-2.461,-2.4612,-2.4613,-2.4611,-2.4606,-2.4605,-2.4597,-2.4586,-2.4558,-2.4554,-2.456,-2.4568,-2.4577,-2.4571,-2.4466,-2.4552,-2.4551,-2.4551,-2.455,-2.455,-2.4745,-2.4755,-2.4739,-2.4739,-2.4729,-2.4722,-2.4729,-2.471,-2.471,-2.4704,-2.4684,-2.4688,-2.4673,-2.4659,-2.465,-2.4652,-2.4635,-2.4644,-2.4646,-2.4648,-2.4652,-2.4577,-2.4651,-2.4651,-2.465,-2.465,-2.465,0,-2.483,-2.4818,-2.4818,-2.4808,-2.4807,-2.4781,-2.477,-2.4772,-2.4775,-2.4764,-2.4761,-2.4761,-2.4759,-2.4736,-2.4731,-2.4737,-2.4724,-2.4736,-2.4735,-2.4733,-2.4669,-2.4664,-2.4747,-2.4747,-2.4747,-2.4747,-2.4747,-2.4747,-2.4875,-2.489,-2.4874,-2.4883,-2.487,-2.4873,-2.4869,-2.4861,-2.4851,-2.4853,-2.4851,-2.4836,-2.4819,-2.4812,-2.4808,-2.4801,-2.4801,-2.4817,-2.4806,-2.4747,-2.4737,-2.4729,-2.4723,-2.4818,-2.4818,-2.487,-2.487,-2.487]}]]